TimeEST,TemperatureF,Dew PointF,Humidity,Sea Level PressureIn,VisibilityMPH,Wind Direction,Wind SpeedMPH,Gust SpeedMPH,PrecipitationIn,Events,Conditions,WindDirDegrees,DateUTC
12:00 AM,73.4,68.0,83,30.06,6.2,East,16.1,-,N/A,,Scattered Clouds,90,2013-11-26 05:00:00
1:00 AM,75,70,81,30.05,8,East,12.7,,,,Mostly Cloudy,90,2013-11-26 06:00:00
2:00 AM,73.4,69.8,88,30.03,5.6,East,13.8,-,N/A,Rain,Light Rain Showers,90,2013-11-26 07:00:00
3:00 AM,73.4,69.8,88,30.01,6.2,East,13.8,-,N/A,,Mostly Cloudy,90,2013-11-26 08:00:00
4:00 AM,75,71,85,30.01,8,East,11.5,,,,,90,2013-11-26 09:00:00
4:00 AM,75.2,71.6,89,30.01,6.2,East,11.5,-,N/A,,Mostly Cloudy,90,2013-11-26 09:00:00
5:00 AM,73.4,69.8,88,-9999,5.6,ESE,10.4,-,N/A,Rain,Light Rain Showers,110,2013-11-26 10:00:00
6:00 AM,73.4,69.8,88,30.01,4.3,ESE,15.0,-,N/A,Rain,Light Rain Showers,110,2013-11-26 11:00:00
7:00 AM,74,73,97,30.03,7,ESE,11.5,,,Rain,Light Rain Showers,120,2013-11-26 12:00:00
7:00 AM,73.4,73.4,100,30.02,6.2,ESE,11.5,-,N/A,,Mostly Cloudy,120,2013-11-26 12:00:00
8:00 AM,75.2,71.6,89,30.04,5.6,East,6.9,-,N/A,Rain,Light Rain Showers,100,2013-11-26 13:00:00
9:00 AM,78.8,71.6,78,30.06,6.2,ESE,13.8,-,N/A,,Mostly Cloudy,120,2013-11-26 14:00:00
10:00 AM,78,74,84,30.06,9,SE,9.2,,,,Partly Cloudy,140,2013-11-26 15:00:00
10:00 AM,77.0,73.4,89,30.06,6.2,SE,9.2,-,N/A,,Scattered Clouds,140,2013-11-26 15:00:00
11:00 AM,80.6,71.6,74,30.03,6.2,ESE,16.1,-,N/A,,Scattered Clouds,120,2013-11-26 16:00:00
12:00 PM,80.6,71.6,74,30.00,6.2,SE,13.8,-,N/A,,Scattered Clouds,130,2013-11-26 17:00:00
1:00 PM,82,72,65,29.98,9,South,11.5,,,,Partly Cloudy,170,2013-11-26 18:00:00
1:00 PM,82.4,71.6,70,29.97,6.2,South,11.5,-,N/A,,Scattered Clouds,170,2013-11-26 18:00:00
2:00 PM,82.4,73.4,74,29.95,6.2,South,11.5,-,N/A,,Partly Cloudy,170,2013-11-26 19:00:00
3:00 PM,82.4,73.4,74,29.93,6.2,SE,11.5,-,N/A,,Scattered Clouds,140,2013-11-26 20:00:00
4:00 PM,81,75,76,29.93,9,SSE,11.5,,,,Partly Cloudy,150,2013-11-26 21:00:00
4:00 PM,80.6,75.2,84,29.92,6.2,SSE,11.5,-,N/A,,Scattered Clouds,150,2013-11-26 21:00:00
5:00 PM,78.8,73.4,83,29.92,6.2,SSE,10.4,-,N/A,,Scattered Clouds,150,2013-11-26 22:00:00
6:00 PM,77.0,73.4,89,29.92,6.2,SSE,6.9,-,N/A,,Partly Cloudy,160,2013-11-26 23:00:00
7:00 PM,78,76,91,29.93,9,SSE,6.9,,,,Scattered Clouds,160,2013-11-27 00:00:00
7:00 PM,78.8,75.2,89,29.93,6.2,SSE,6.9,-,N/A,,Partly Cloudy,160,2013-11-27 00:00:00
8:00 PM,77.0,73.4,89,29.93,6.2,SSE,6.9,-,N/A,,Partly Cloudy,150,2013-11-27 01:00:00
9:00 PM,77.0,73.4,89,29.93,6.2,SE,6.9,-,N/A,,Partly Cloudy,140,2013-11-27 02:00:00
10:00 PM,75,70,79,30.01,9,NW,3.5,,,,Scattered Clouds,320,2013-11-27 03:00:00
10:00 PM,78.8,77.0,94,29.93,6.2,SSE,5.8,-,N/A,,Partly Cloudy,150,2013-11-27 03:00:00
11:00 PM,77.0,73.4,89,29.94,6.2,South,4.6,-,N/A,,Partly Cloudy,180,2013-11-27 04:00:00